Redding, CA

6:55 AM PST on November 20, 2019 (GMT -0800)
Redding Municipal

Weather History for KRDD - September, 2019

Change the Weather History Date:

Friday, September 27, 2019

  Actual Average Record
Temperature  
Mean Temperature 70 °F -  
Max Temperature 76 °F 87 °F 105 °F (1967)
Min Temperature 63 °F 55 °F 40 °F (1986)
Degree Days  
Heating Degree Days 0    
Cooling Degree Days 5    
Growing Degree Days 22 (Base 50)    
Moisture  
Dew Point 57 °F    
Average Humidity 64    
Maximum Humidity 78    
Minimum Humidity 50    
Precipitation  
Precipitation 0.00 in 0.03 in 1.51 in (1957)
Month to date precipitation 0.24 0.55  
Year to date precipitation 32.51 21.68  
Sea Level Pressure  
Sea Level Pressure 29.80 in    
Wind  
Wind Speed 6 mph (South)    
Max Wind Speed 15 mph    
Max Gust Speed 19 mph    
Visibility 10 miles    
Events      
T = Trace of Precipitation, MM = Missing Value Source: NWS Daily Summary

Daily Weather History Graph

Daily Weather History Graph

Search for Another Location

Airport or City:

Astronomy

Sep. 27, 2019 Rise Set
Actual Time 7:01 AM PDT 6:58 PM PDT
Civil Twilight 6:34 AM PDT 7:25 PM PDT
Nautical Twilight 6:02 AM PDT 7:56 PM PDT
Astronomical Twilight 5:30 AM PDT 8:29 PM PDT
Moon 5:29 AM PDT (9/27) 6:52 PM PDT (9/27)
Length of Visible Light 12h 50m
Length of Day
11h 56m
Waning Crescent, 1% of the Moon is Illuminated
Sep 27
Waning Crescent
Sep 28
New
Oct 5
First Quarter
Oct 13
Full
Oct 21
Last Quarter

Hourly Weather History & Observations

Time (PDT) Temp. Dew Point Humidity Pressure Visibility Wind Dir Wind Speed Gust Speed Precip Events Conditions
12:53 AM 73.9 °F 57.9 °F 57% 29.83 in 10.0 mi South 9.2 mph - N/A   Clear
1:53 AM 71.1 °F 57.9 °F 63% 29.84 in 10.0 mi South 5.8 mph - N/A   Clear
2:53 AM 69.1 °F 57.9 °F 68% 29.85 in 10.0 mi SSW 4.6 mph - N/A   Clear
3:53 AM 68.0 °F 57.9 °F 70% 29.86 in 10.0 mi South 8.1 mph - N/A   Clear
4:53 AM 66.0 °F 57.0 °F 73% 29.86 in 10.0 mi South 9.2 mph - N/A   Clear
5:53 AM 64.0 °F 57.0 °F 78% 29.87 in 10.0 mi South 5.8 mph - N/A   Clear
6:53 AM 64.0 °F 57.0 °F 78% 29.88 in 10.0 mi SW 3.5 mph - N/A   Partly Cloudy
7:45 AM 64.0 °F 57.0 °F 78% 29.90 in 10.0 mi SSW 3.5 mph - N/A   Mostly Cloudy
7:53 AM 64.0 °F 57.0 °F 78% 29.89 in 10.0 mi Calm Calm - N/A   Mostly Cloudy
8:53 AM 64.0 °F 57.0 °F 78% 29.90 in 10.0 mi SSW 4.6 mph - N/A   Overcast
9:53 AM 64.9 °F 57.9 °F 78% 29.91 in 10.0 mi SSE 4.6 mph - N/A   Overcast
10:53 AM 66.0 °F 57.0 °F 73% 29.89 in 10.0 mi SW 6.9 mph - N/A   Overcast
11:53 AM 70.0 °F 57.0 °F 63% 29.87 in 10.0 mi Calm Calm - N/A   Mostly Cloudy
12:12 PM 70.0 °F 57.0 °F 63% 29.87 in 10.0 mi Calm Calm - N/A   Scattered Clouds
12:53 PM 71.1 °F 57.0 °F 61% 29.83 in 10.0 mi Calm Calm - N/A   Partly Cloudy
1:53 PM 73.9 °F 55.9 °F 53% 29.81 in 10.0 mi SW 5.8 mph - N/A   Scattered Clouds
2:53 PM 75.0 °F 55.0 °F 50% 29.78 in 10.0 mi South 9.2 mph - N/A   Clear
3:53 PM 73.9 °F 55.0 °F 52% 29.75 in 10.0 mi SSW 8.1 mph - N/A   Clear
4:53 PM 73.9 °F 55.0 °F 52% 29.73 in 10.0 mi South 12.7 mph - N/A   Clear
5:53 PM 73.0 °F 55.9 °F 55% 29.73 in 10.0 mi SSW 10.4 mph - N/A   Clear
6:53 PM 71.1 °F 55.9 °F 59% 29.72 in 10.0 mi SSW 8.1 mph - N/A   Partly Cloudy
7:53 PM 69.1 °F 55.9 °F 63% 29.71 in 10.0 mi South 5.8 mph - N/A   Scattered Clouds
8:53 PM 68.0 °F 57.0 °F 68% 29.72 in 10.0 mi ESE 3.5 mph - N/A   Overcast
9:53 PM 66.9 °F 57.0 °F 70% 29.71 in 10.0 mi Calm Calm - N/A   Overcast
10:48 PM 66.2 °F 57.2 °F 73% 29.72 in 10.0 mi South 3.5 mph - N/A   Overcast
10:53 PM 66.9 °F 57.0 °F 70% 29.71 in 10.0 mi SSE 3.5 mph - N/A   Overcast
11:53 PM 66.9 °F 57.0 °F 70% 29.69 in 10.0 mi Calm Calm - N/A   Overcast